Flag for Norway Weather past 2 weeks in Ålgård, Norway

Now
48 °F

Light rain. Passing clouds.


Feels Like: 44 °F
Forecast: 50 / 55 °F
Wind: 9 mph from Southeast

Location: Stavanger / Sola

Current Time: Oct 23, 2014 at 2:19:20 AM

Latest Report: Oct 23, 2014 at 1:50 AM


Visibility: N/A

Pressure: 29.92 "Hg

Humidity: 76%

Dew point: 41 °F

Location of ÅlgårdLocation

Historic Weather in Ålgård — Graph

°F

Ålgård temperature yesterday

Maximum temperature yesterday: 55 °F (at 12:20 AM)
Minimum temperature yesterday: 46 °F (at 11:20 PM)
Average temperature yesterday: 49 °F

Past Weeks' High & Low Weather Summary

 TemperatureHumidityPressure
High59 °F (Oct 9, 2:50 PM)100% (Oct 12, 6:20 AM)29.98 "Hg (Oct 12, 6:20 AM)
Low34 °F (Oct 17, 4:50 AM)47% (Oct 16, 1:20 PM)29.15 "Hg (Oct 8, 5:50 AM)
Average51 °F83%29.67 "Hg
* Reported Oct 8 12:20 AM — Oct 23 12:50 AM, Ålgård, Weather by CustomWeather, © 2014

Note: Actual official high and low records may vary slightly from our data, if they occured in-between our weather recording intervals... More about our weather records

Advertising

Ålgård weather history for previous 24 hours

 ConditionsComfort  
Time TempWeatherWind HumidityBarometerVisibility
12:50 AM
Oct 23
46 °FPassing clouds.6 mph87%29.95 "HgN/A
12:20 AM46 °FPassing clouds.6 mph87%29.92 "HgN/A
11:50 PM
Oct 22
46 °FPassing clouds.7 mph87%29.92 "HgN/A
11:20 PM46 °FPassing clouds.7 mph87%29.92 "HgN/A
10:50 PM48 °FPassing clouds.7 mph87%29.92 "HgN/A
10:20 PM48 °FPartly cloudy.6 mph82%29.95 "HgN/A
9:50 PM48 °FPassing clouds.3 mph82%29.95 "HgN/A
9:20 PM48 °FPassing clouds.2 mph82%29.95 "HgN/A
8:50 PM48 °FPassing clouds.3 mph82%29.92 "HgN/A
8:20 PM48 °FPassing clouds.2 mph82%29.92 "HgN/A
7:50 PM50 °FPassing clouds.1 mph71%29.92 "HgN/A
7:20 PM50 °FPassing clouds.1 mph76%29.92 "HgN/A
6:50 PM50 °FPartly sunny.2 mph76%29.92 "HgN/A
6:20 PM50 °FPartly sunny.1 mph76%29.89 "HgN/A
5:50 PM50 °FPartly sunny.6 mph76%29.92 "HgN/A
5:20 PM50 °FPartly sunny.6 mph76%29.92 "HgN/A
4:50 PM50 °FPartly sunny.7 mph76%29.92 "HgN/A
4:20 PM50 °FPartly sunny.8 mph76%29.89 "HgN/A
3:50 PM50 °FPartly sunny.9 mph76%29.89 "HgN/A
3:20 PM50 °FPartly sunny.9 mph76%29.89 "HgN/A
2:50 PM50 °FPartly sunny.10 mph76%29.89 "HgN/A
2:20 PM52 °FPartly sunny.13 mph77%29.89 "HgN/A
1:50 PM50 °FPartly sunny.13 mph82%29.89 "HgN/A
1:20 PM50 °FPartly sunny.13 mph76%29.89 "HgN/A
12:50 PM50 °FBroken clouds.13 mph82%29.86 "HgN/A
12:20 PM48 °FLight rain. Partly sunny.9 mph87%29.86 "HgN/A
11:50 AM48 °FLight rain. Partly sunny.10 mph82%29.86 "HgN/A
11:20 AM48 °FLight rain. Partly sunny.14 mph82%29.83 "HgN/A
10:50 AM48 °FPartly sunny.14 mph82%29.83 "HgN/A
10:20 AM48 °FPartly sunny.13 mph82%29.80 "HgN/A
9:50 AM48 °FBroken clouds.17 mph87%29.80 "HgN/A
9:20 AM48 °FPartly cloudy.18 mph82%29.77 "HgN/A
8:50 AM48 °FPartly cloudy.20 mph82%29.74 "HgN/A
8:20 AM48 °FLight rain. Partly cloudy.23 mph87%29.74 "HgN/A
7:50 AM48 °FPartly cloudy.22 mph87%29.71 "HgN/A
7:20 AM48 °FPassing clouds.24 mph87%29.68 "HgN/A
6:50 AM48 °FLight rain. Partly cloudy.23 mph87%29.65 "HgN/A
6:20 AM48 °FLight rain. Partly cloudy.22 mph87%29.65 "HgN/A
5:50 AM48 °FLight rain. Partly cloudy.28 mph87%29.62 "HgN/A
4:50 AM50 °FLight rain. Partly cloudy.31 mph88%29.56 "HgN/A
3:50 AM50 °FRain. Passing clouds.29 mph94%29.50 "Hg5 mi
2:50 AM52 °FLight rain. Partly cloudy.25 mph94%29.45 "HgN/A
Weather by CustomWeather, © 2014

See weather overviewHow to use our weather pages